Regional Weather Roundup
Issued by NWS

Home | Current Version | Previous Version | Graphics & Text | Print | Product List | Glossary On
Versions: 1 2 3 4 5 6 7 8 9 10 11 12 13 14 15 16 17 18 19 20 21 22 23 24 25 26 27 28 29 30 31 32 33 34 35 36 37 38 39 40 41 42 43 44 45 46 47 48 49 50
000
ASUS43 KLOT 302110
RWRIL

ILLINOIS REGIONAL WEATHER ROUNDUP
NATIONAL WEATHER SERVICE CHICAGO/ROMEOVILLE IL
400 PM CDT WED JUL 30 2014

NOTE: "FAIR" INDICATES FEW OR NO CLOUDS BELOW 12,000 FEET WITH NO
SIGNIFICANT WEATHER AND/OR OBSTRUCTIONS TO VISIBILITY.

* THESE STATIONS ARE NOT UNDER NWS QUALITY CONTROL. THEY ALSO MAY NOT
  REPORT WEATHER SUCH AS PRECIPITATION OR FOG.

ILZ001-002-007-009-015-016-024-302200-
NORTHWEST ILLINOIS

CITY           SKY/WX    TMP DP  RH WIND       PRES   REMARKS
MOLINE         SUNNY     82  57  42 NW10      30.04F HX  82
STERLING*      MOSUNNY   81  61  50 NW10      30.04F HX  81
SAVANNA*       SUNNY     81  53  38 NW12      30.04S HX  81
$$

ILZ003-004-008-010-011-017-018-302200-
NORTH CENTRAL ILLINOIS

CITY           SKY/WX    TMP DP  RH WIND       PRES   REMARKS
ROCKFORD       LGT RAIN  75  56  51 NW10      30.04S
FREEPORT*      MOSUNNY   78  58  51 W12G17    30.06F
ROCHELLE*      MOSUNNY   79  55  43 W9        30.04S
DE KALB*       MOSUNNY   75  57  52 NW13      30.04S
PERU*          MOSUNNY   78  60  52 W8        30.05S HX  80
$$

ILZ005-006-012>014-019>023-302200-
NORTHEAST ILLINOIS

CITY           SKY/WX    TMP DP  RH WIND       PRES   REMARKS
CHICAGO-OHARE  PTSUNNY   72  57  59 NE10      30.02S
CHICAGO-MIDWAY PTSUNNY   72  60  66 E13       30.02S
AURORA         MOSUNNY   79  58  48 W12       30.03F HX  80
LANSING*       SUNNY     75  60  58 NE9       30.02R
JOLIET*        MOSUNNY   78  54  43 W9        30.03F
WAUKEGAN       SUNNY     69  56  62 E8        30.03S
DUPAGE AIRPORT MOSUNNY   78  57  48 W10       30.02S
KANKAKEE*      SUNNY     77  61  56 NW6       30.03F
WHEELING       MOSUNNY   73  60  63 NE8       30.04S
MORRIS*        PTSUNNY   77  61  56 W7        30.03S
ROMEOVILLE*    MOSUNNY   78  57  48 W10G18    30.02F
NORTHERLY ISL    N/A     67  61  81 NE7         N/A
$$

LMZ740>746-302200-
SOUTHERN LAKE MICHIGAN

STATION/POSITION SKY/WX   TEMP    WIND        PRES    VSBY  WAVE
                          AIR SEA DIR/SP/G                  HT/PER
                          (F)     (DEG/KT/KT) (MB)    (MI)  (FT/S)
SOUTHERN BUOY              59 62  330/  4/  6 1017.2F         1
WAUKEGAN HARBOR            63      60/  7/  9   N/A
HARRISON CRIB              63      30/ 11/ 12   N/A
BURNHAM HARBOR             66      10/  8/ 11   N/A
CALUMET HARBOR             67      10/  9/ 14 1015.8S
BURNS HARBOR               67      40/ 13/ 14 1017.3S
MICHIGAN CITY              64      20/ 12/ 14   N/A
MICHIGAN CITY 6N           65 70   40/ 10/ 12   N/A           1/ 2
ST. JOSEPH                 63 69   10/  8/ 10   N/A           1/ 3
$$

ILZ025>027-034>036-040-047-049-050-058-095>099-302200-
WEST-CENTRAL ILLINOIS

CITY           SKY/WX    TMP DP  RH WIND       PRES   REMARKS
QUINCY         MOSUNNY   80  56  43 N7        30.07F HX  80
GALESBURG*     MOSUNNY   83  60  46 W8        30.06F HX  83
MACOMB*        MOSUNNY   77  59  55 NW5       30.09F
JACKSONVILLE*  MOSUNNY   81  61  51 NW6       30.07F HX  82
PITTSFIELD*    MOSUNNY   81  56  42 NW5       30.08S HX  81
$$

ILZ028>032-037-038-041>044-048-051>054-059>061-302200-
CENTRAL ILLINOIS

CITY           SKY/WX    TMP DP  RH WIND       PRES   REMARKS
PONTIAC        MOSUNNY   79  61  53 W6        30.04S HX  80
DECATUR        MOSUNNY   81  56  42 NW10      30.06F HX  81
PEORIA         MOSUNNY   82  56  40 NW6       30.05F HX  82
LACON*         SUNNY     81  56  43 NW9       30.03F HX  81
LINCOLN*       SUNNY     81  57  43 NW7       30.02F HX  81
SPRINGFIELD    MOSUNNY   81  58  45 NW7       30.06F HX  81
TAYLORVILLE    MOSUNNY   77  57  50 W5        30.06F
$$

ILZ033-039-045-046-055>057-062-063-302200-
EAST-CENTRAL ILLINOIS

CITY           SKY/WX    TMP DP  RH WIND       PRES   REMARKS
CHAMPAIGN      MOSUNNY   79  60  52 W12       30.05F HX  80
DANVILLE*      MOSUNNY   78  62  56 W10       30.01F HX  80
RANTOUL*       MOSUNNY   77  58  52 W8G18     30.06S
MATTOON        MOSUNNY   79  59  50 W8        30.05F HX  80
PARIS*         PTSUNNY   78  62  57 W9        30.05F
$$

ILZ079-100>102-302200-
SOUTHWEST ILLINOIS

CITY           SKY/WX    TMP DP  RH WIND       PRES   REMARKS
ALTON          MOSUNNY   81  55  41 W7        30.06F HX  80
BELLEVILLE     PTSUNNY   81  56  43 VRB2      30.05F HX  81
CAHOKIA*       PTSUNNY   84  54  35 VRB6      30.05F HX  83
SPARTA*        PTSUNNY   79  61  53 SW9       30.07F HX  80
$$

ILZ064>066-069>071-074>076-080>082-084>086-088>090-092>094-302200-
SOUTH-CENTRAL ILLINOIS

CITY           SKY/WX    TMP DP  RH WIND       PRES   REMARKS
CARBONDALE     CLOUDY    77  62  59 S10       30.08F
CAIRO*         CLOUDY    78  61  54 CALM      30.10S HX  80
EFFINGHAM*     MOSUNNY   81  50  34 W5        30.06F HX  80
MARION         PTSUNNY   79  61  53 SW9       30.09F HX  80
MT. VERNON     MOSUNNY   82  57  42 SW9       30.07F HX  82
CENTRALIA*     PTSUNNY   91  51  25 NW3       30.06F HX  88
SALEM*         MOSUNNY  N/A N/A N/A W6        30.06F
METROPOLIS*    CLOUDY    78  53  42 SW5       30.09S
$$

ILZ067-068-072-073-078-083-087-091-302200-
SOUTHEAST ILLINOIS

CITY           SKY/WX    TMP DP  RH WIND       PRES   REMARKS
LAWRENCEVILLE  MOSUNNY   81  59  47 W10       30.06F HX  81
FLORA*         SUNNY     81  52  35 SW6       30.06F HX  80
FAIRFIELD*     MOSUNNY   81  61  50 S3        30.06S HX  81
HARRISBURG*    PTSUNNY   78  59  53 SW10G16   30.09S
ROBINSON*      MOSUNNY   80  62  53 W7        30.06S HX  81
CARMI*         MOSUNNY   82  64  54 W7        30.06F HX  84
$$

ABBREVIATIONS USED IN REMARKS
   TC - TEMPERATURE IN CELSIUS
  WCI - WIND CHILL INDEX
   HX - HEAT INDEX
  VSB - VISIBILITY
$$




USA.gov is the U.S. government's official web portal to all federal, state and local government web resources and services.